#timestamp,LO_Frequency,Hit,StdDev 
1532930415.4,286046999.4,N
1532930435.2,286046999.6,N
1532930455.0,286046999.5,N
1532930455.9,286046999.5,N
1532930475.8,286046999.3,N
1532930495.6,286046999.6,N
1532930515.5,286046997.4,N
1532930535.3,286046997.3,N
1532930555.1,286046997.2,N
1532930575.9,286046997.5,N
1532930595.7,286046995.7,Y
1532930615.5,286046998.0,P
1532930635.4,286046997.8,P
1532930655.2,286046997.5,P
1532930675.1,286046997.2,Y
1532930676.0,286046997.2,P
1532930695.8,286046998.8,N
1532930715.6,286046998.6,N
1532930735.5,286046998.2,N
1532930755.3,286046998.2,Y
1532930775.1,286047000.8,P
1532930795.9,286047000.0,N
1532930815.7,286047000.1,N
1532930835.6,286047000.9,N
1532930855.4,286047000.5,N
1532930875.2,286047000.6,N
1532930895.1,286047001.0,N
1532930896.0,286047001.0,N
1532930915.8,286047000.8,N
1532930935.6,286047001.0,N
1532930955.5,286046998.1,N
1532930975.3,286047000.8,N
1532930995.2,286047000.7,N
1532931015.9,286047000.8,N
1532931035.7,286047000.0,N
1532931055.6,286047001.1,N
1532931075.4,286046998.4,N
1532931095.2,286046998.8,N
1532931115.1,286046999.1,N
1532931116.0,286046999.1,N
1532931135.8,286046998.4,N
1532931155.7,286047001.1,N
1532931175.5,286047001.2,N
1532931195.3,286047000.7,N
1532931215.2,286047000.8,N
1532931235.0,286046998.3,N
1532931235.9,286046998.3,N
1532931255.8,286046998.8,N
1532931275.6,286046999.2,N
1532931295.4,286046999.4,N
1532931315.3,286046999.3,N
1532931335.1,286046999.0,N
1532931336.0,286046999.0,N
1532931355.8,286046998.4,N
1532931375.7,286046999.0,N
1532931395.5,286046999.5,N
1532931415.4,286046996.9,N
1532931435.2,286046996.6,N
1532931455.0,286046996.7,N
1532931455.9,286046996.7,N
1532931475.8,286046996.6,N
1532931495.6,286046996.6,N
1532931515.4,286046997.0,N
1532931535.3,286046997.3,N
1532931555.1,286046997.7,N
1532931575.9,286046994.9,Y
1532931595.7,286046996.6,P
1532931615.5,286046997.2,N
1532931635.4,286046997.0,P
1532931655.2,286046997.8,N
1532931675.1,286046997.1,Y
1532931676.0,286046997.1,P
1532931695.8,286047001.0,P
1532931715.6,286047000.8,N
1532931735.5,286047000.2,N
1532931755.3,286046999.7,N
1532931775.1,286047000.0,N
1532931795.9,286047000.3,N
1532931815.7,286047000.7,N
1532931835.6,286047001.0,N
1532931855.4,286047000.4,N
1532931875.2,286047000.9,N
1532931925.1,286047001.1,E
1532931935.0,286046998.7,N
1532931935.9,286046998.7,P
1532931955.8,286046997.0,P
1532931975.6,286046999.4,N
1532931995.4,286046996.5,Y
1532932015.3,286046998.1,P
1532932035.1,286046998.6,P
1532932055.8,286046998.5,P
1532932075.7,286046998.6,Y
1532932095.5,286047000.5,P
1532932115.4,286047000.9,N
1532932135.2,286047000.9,N
1532932155.0,286047001.0,N
1532932155.9,286047001.0,N
1532932175.8,286047001.0,N
1532932195.6,286047000.8,N
1532932215.4,286046998.5,N
1532932235.3,286046998.1,N
1532932255.1,286046998.4,N
1532932275.9,286046998.6,N
1532932295.7,286047000.8,N
1532932315.5,286046999.4,N
1532932335.4,286046998.5,N
1532932355.2,286046998.1,N
1532932375.0,286046998.7,N
1532932375.9,286046998.7,N
1532932395.8,286047000.5,N
1532932415.6,286047000.9,N
1532932435.5,286046999.9,N
1532932455.3,286047001.0,N
1532932475.1,286047000.8,N
1532932495.9,286047000.9,N
1532932515.7,286047000.1,N
1532932535.5,286047000.1,N
1532932555.4,286046999.8,N
1532932575.2,286046999.7,N
1532932595.1,286047002.7,N
1532932596.0,286047002.7,N
1532932615.8,286047002.3,N
1532932635.6,286047002.2,N
1532932655.5,286047002.4,N
1532932675.3,286047001.7,N
1532932695.1,286047001.5,N
1532932715.9,286047003.9,N
1532932735.7,286047003.7,N
1532932755.6,286047003.8,N
1532932775.4,286047001.8,N
1532932795.2,286047001.5,N
1532932815.1,286047001.6,N
1532932816.0,286047001.6,N
1532932835.8,286047004.4,N
1532932855.6,286047003.8,N
1532932875.1,286047001.7,N
1532932895.9,286047001.6,N
1532932915.7,286047001.4,N
1532932935.5,286047001.3,N
1532932955.4,286047001.9,N
1532932975.2,286047003.9,Y
1532932995.0,286047002.4,P
1532932995.9,286047002.4,P
1532933015.8,286047002.1,P
1532933035.6,286047002.6,Y
1532933055.5,286046998.8,P
1532933075.3,286046999.4,N
1532933095.1,286046998.3,N
1532933115.9,286046999.2,N
1532933135.7,286046998.2,N
1532933155.5,286047000.7,N
1532933175.4,286046998.7,N
1532933195.2,286046999.5,N
1532933215.1,286046999.0,N
1532933216.0,286046999.0,N
1532933235.8,286046998.2,N
1532933255.6,286047000.7,N
1532933275.5,286046999.9,N
1532933295.3,286047001.1,N
1532933315.1,286047001.2,N
1532933335.9,286047000.7,N
1532933355.7,286047000.7,N
1532933375.6,286047000.6,N
1532933395.4,286047000.4,N
1532933415.2,286047000.1,N
1532933435.1,286046999.7,N
1532933436.0,286046999.7,N
1532933455.8,286047000.6,N
1532933475.6,286047001.1,N
1532933495.5,286047000.2,N
1532933515.3,286047000.4,N
1532933535.2,286046999.9,N
1532933555.9,286046999.9,N
1532933575.7,286047000.7,N
1532933595.6,286046998.5,N
1532933615.4,286046998.4,N
1532933635.2,286047000.4,N
1532933655.1,286047001.1,N
1532933656.0,286047001.1,N
1532933675.8,286047000.6,N
1532933695.7,286047000.5,N
1532933715.5,286047000.6,N
1532933735.3,286047001.1,N
1532933755.2,286047000.6,N
1532933775.0,286047000.1,N
1532933775.9,286047000.1,N
1532933795.8,286047000.4,N
1532933815.6,286047002.2,Y
1532933835.4,286047002.1,P
1532933855.3,286047002.8,P
1532933875.1,286046999.9,N
1532933895.9,286047001.2,N
1532933915.7,286047000.6,N
1532933935.5,286047000.5,N
1532933955.4,286047001.0,N
1532933975.2,286047000.0,N
1532933995.0,286047002.2,N
1532933995.9,286047002.2,N
